AirNav   Duncan Aviation - Near you to keep you flying
 
 945 users online  

5MO5 St Lukes Hospital Heliport
Kansas City, Missouri, USA

GOING TO KANSAS CITY?


FAA INFORMATION EFFECTIVE 26 JANUARY 2023

Location

FAA Identifier: 5MO5
Lat/Long: 39-02-47.3700N 094-35-21.5900W
39-02.789500N 094-35.359833W
39.0464917,-94.5893306
(estimated)
Elevation: 980 ft. / 299 m (estimated)
Variation: 05E (1985)
Time zone: UTC -6 (UTC -5 during Daylight Saving Time)
Zip code: 64111

Heliport Operations

Heliport use: Private use, MEDICAL USE.
Activation date: 04/1991
Control tower: no
ARTCC: KANSAS CITY CENTER
FSS: COLUMBIA FLIGHT SERVICE STATION
Attendance: CONTINUOUS
Wind indicator: lighted
Segmented circle: no
Lights: SS-SR
Beacon: white-green-yellow (heliport)
ACTVT ROTG BCN - 123.05

Heliport Communications

WX ASOS at MKC (5 nm N): 120.75 (816-329-2843)
WX ASOS at LXT (11 nm SE): 124.175 (816-347-9807)
WX ASOS at OJC (14 nm SW): PHONE 913-780-6969
WX ASOS at MCI (16 nm N): PHONE 816-329-2808
WX ASOS at IXD (19 nm SW): 135.325 (913-780-6987)

Nearby radio navigation aids

VOR radial/distance  VOR name  Freq  Var
MCIr149/15.9KANSAS CITY VORTAC113.2505E
ANXr255/21.7NAPOLEON VORTAC114.0007E

Heliport Services

Runway Information

Helipad H1

Dimensions: 52 x 50 ft. / 16 x 15 m
Surface: concrete
ROOFTOP.
Runway edge lights: PERI
Latitude: 39-02.789500N
Longitude: 094-35.359833W
Elevation: 980.0 ft.
Traffic pattern: leftleft

Helipad H2

Dimensions: 52 x 50 ft. / 16 x 15 m
Surface: concrete
Runway edge lights: PERI
Latitude: 39-02.777833N
Longitude: 094-35.360667W
Elevation: 980.0 ft.
Traffic pattern: leftleft

Heliport Ownership and Management from official FAA records

Ownership: Privately-owned
Owner: ST LUKES HOSPITAL
4401 WORNALL ROAD
KANSAS CITY, MO 64111
Phone 816-932-2000
Manager: JANE PECK
4401 WORNALL ROAD, 4401 WORNALL ROAD
KANSAS CITY, MO 64111
Phone 816-932-2000
DIRECTOR SAFETY & PREPAREDNESS DEREK COLLINS 816-932-7496

Additional Remarks

OWNER DESIRES ARPT NOT BE CHARTED.
FOR CD CTC KANSAS CITY APCH AT 816-329-2710.

Instrument Procedures

There are no published instrument procedures at 5MO5.

Some nearby airports with instrument procedures:

KMKC - Charles B Wheeler Downtown Airport (5 nm N)
KLXT - Lee's Summit Municipal Airport (11 nm SE)
KOJC - Johnson County Executive Airport (14 nm SW)
KMCI - Kansas City International Airport (16 nm N)
3GV - East Kansas City Airport (18 nm E)
KIXD - New Century AirCenter Airport (19 nm SW)
 
Loc | Ops | Rwys | IFR | FBO | Links
Com | Nav | Svcs | Stats | Notes
Area around 5MO5 (St Lukes Hospital Heliport)
 
Road maps at: MapQuest Bing Google
 
Aerial photo
No photo
 
Sectional chart

 
Airport distance calculator
Flying to St Lukes Hospital Heliport? Find the distance to fly.

From to 5MO5

Sunrise and sunset
Times for 05-Feb-2023
 Local
(UTC-6)
 Zulu
(UTC)
Morning civil twilight06:5412:54
Sunrise07:2213:22
Sunset17:4323:43
Evening civil twilight18:1100:11

Current date and time
Zulu (UTC)  06-Feb-2023 02:39:11
Local (UTC-6)  05-Feb-2023 20:39:11
 
METAR
KMKC 
4nm N 
060154Z 00000KT 10SM CLR 06/M03 A3008 RMK AO2 SLP192 T00561033
KLXT 
11nm SE 
060153Z AUTO 16007KT 10SM CLR 09/M03 A3009 RMK AO2 SLP196 T00941028 PWINO $
KGVW 
13nm S 
060220Z AUTO 15007KT 120V180 10SM OVC040 19/16 A3019 RMK A01
KOJC 
14nm SW 
060153Z 18003KT 10SM CLR 08/M03 A3008 RMK AO2 SLP192 T00831033
KMCI 
17nm NW 
060153Z 12003KT 10SM FEW200 08/M04 A3008 RMK AO2 SLP191 T00831044
KIXD 
19nm SW 
060153Z 21003KT 10SM CLR 07/M03 A3009 RMK AO2 SLP195 T00721033
TAF
KMKC 
4nm N 
051720Z 0518/0618 26006KT P6SM SKC FM060300 13003KT P6SM FEW200 FM061200 14013KT P6SM SCT250
KMCI 
17nm NW 
051720Z 0518/0618 26007KT P6SM SKC FM060300 13005KT P6SM FEW200 FM061200 14015KT P6SM SCT250
KIXD 
19nm SW 
051720Z 0518/0618 26007KT P6SM SKC FM060300 13005KT P6SM FEW200 FM061200 15015KT P6SM SCT250
NOTAMs
Click for the latest NOTAMs
NOTAMs are issued by the DoD/FAA and will open in a separate window not controlled by AirNav.

 

 
 

Would you like to see your business listed on this page?

 If your business provides an interesting product or service to pilots, flight crews, aircraft, or users of the St Lukes Hospital Heliport, you should consider listing it here.  To start the listing process, click on the button below
 
Add a business
 

Other Pages about St Lukes Hospital Heliport

Update a link
 
Copyright © AirNav, LLC. All rights reserved. Privacy Policy  Contact